カタログに戻る

STARLINK-37845

運用中通信VLEO
NORAD 100030·PAYLOAD·🇺🇸 United States

打ち上げ Jul 14, 2026 から Cape Canaveral Space Force Station

Loading…

次のパス (今後24時間)

TLE

最新Source: Space-Track

元期: Sep 14, 2026, 15:08 UTC

1 A0030U 26161C   26257.63072989  .00020681  00000-0  62155-3 0  9994
2 A0030  53.1620  24.8392 0001142  88.6513 271.4620 15.34398587  9711

AllMySatでSTARLINK-37845をリアルタイム追跡

Download on the App Store